Total_Precipitation_Accumulation
0.24 0.17 0.17 0.21 0.19 0.20 0.32 0.33 0.24 0.12 0.10 0.10 0.10 0.11 0.12 0.13 0.14 0.13 0.12 0.15 0.22 0.25 0.25 0.31 0.40 0.49 0.51 0.47 0.43 0.41 0.45 0.52 0.54 0.55 0.62 0.65 0.66 0.79 0.96 0.90 0.77 0.70 0.66 0.67
0.20 0.13 0.13 0.14 0.12 0.13 0.15 0.14 0.12 0.08 0.09 0.11 0.11 0.10 0.11 0.13 0.15 0.15 0.16 0.17 0.21 0.25 0.25 0.31 0.38 0.47 0.56 0.49 0.44 0.37 0.39 0.44 0.47 0.53 0.65 0.67 0.64 0.69 0.79 0.86 0.81 0.72 0.67 0.64
0.32 0.14 0.25 0.27 0.14 0.14 0.14 0.11 0.14 0.16 0.13 0.11 0.12 0.11 0.13 0.16 0.16 0.17 0.19 0.21 0.22 0.25 0.29 0.34 0.37 0.45 0.53 0.50 0.46 0.38 0.36 0.41 0.43 0.46 0.59 0.66 0.66 0.71 0.73 0.76 0.82 0.81 0.69 0.61
0.54 0.37 0.55 0.22 0.08 0.09 0.11 0.12 0.14 0.14 0.12 0.11 0.12 0.12 0.13 0.17 0.20 0.21 0.22 0.22 0.23 0.26 0.32 0.32 0.34 0.36 0.42 0.44 0.42 0.39 0.37 0.42 0.44 0.44 0.48 0.59 0.68 0.68 0.67 0.68 0.69 0.73 0.71 0.64
0.86 0.60 0.31 0.12 0.10 0.11 0.14 0.16 0.11 0.10 0.09 0.09 0.10 0.09 0.10 0.10 0.14 0.21 0.22 0.22 0.22 0.25 0.29 0.28 0.29 0.29 0.35 0.38 0.35 0.36 0.42 0.46 0.45 0.41 0.42 0.50 0.58 0.62 0.64 0.65 0.59 0.59 0.64 0.63
0.97 0.71 0.28 0.14 0.11 0.09 0.12 0.24 0.12 0.10 0.11 0.10 0.11 0.17 0.13 0.09 0.13 0.20 0.17 0.18 0.20 0.22 0.21 0.24 0.27 0.28 0.32 0.33 0.28 0.31 0.38 0.45 0.41 0.37 0.34 0.34 0.43 0.56 0.61 0.62 0.58 0.55 0.58 0.59
0.80 0.61 0.21 0.13 0.13 0.13 0.24 0.29 0.14 0.11 0.12 0.12 0.14 0.19 0.15 0.14 0.16 0.18 0.13 0.13 0.16 0.18 0.19 0.24 0.26 0.24 0.28 0.31 0.29 0.29 0.36 0.41 0.37 0.33 0.32 0.32 0.37 0.50 0.58 0.64 0.65 0.58 0.54 0.55
0.56 0.63 0.28 0.16 0.20 0.28 0.29 0.16 0.10 0.09 0.09 0.09 0.09 0.09 0.10 0.13 0.18 0.18 0.13 0.11 0.11 0.14 0.17 0.21 0.23 0.23 0.28 0.33 0.31 0.32 0.34 0.31 0.31 0.31 0.32 0.34 0.37 0.46 0.57 0.64 0.68 0.63 0.56 0.53
0.38 0.28 0.17 0.16 0.22 0.23 0.16 0.10 0.07 0.07 0.07 0.07 0.08 0.09 0.11 0.14 0.17 0.19 0.15 0.14 0.12 0.13 0.16 0.20 0.23 0.23 0.28 0.33 0.31 0.32 0.31 0.29 0.27 0.29 0.31 0.32 0.40 0.49 0.58 0.64 0.66 0.64 0.59 0.55
0.26 0.14 0.11 0.12 0.15 0.15 0.10 0.07 0.05 0.05 0.06 0.07 0.08 0.10 0.12 0.14 0.16 0.17 0.17 0.16 0.15 0.15 0.17 0.23 0.24 0.23 0.27 0.31 0.29 0.27 0.26 0.28 0.28 0.31 0.35 0.37 0.41 0.48 0.55 0.63 0.68 0.61 0.56 0.54
0.24 0.12 0.11 0.11 0.10 0.10 0.08 0.06 0.05 0.05 0.05 0.06 0.08 0.10 0.12 0.14 0.15 0.17 0.20 0.19 0.18 0.17 0.18 0.24 0.27 0.28 0.30 0.27 0.25 0.24 0.24 0.29 0.35 0.36 0.40 0.44 0.45 0.46 0.50 0.52 0.64 0.62 0.53 0.54
0.20 0.12 0.13 0.12 0.10 0.09 0.08 0.07 0.07 0.06 0.06 0.05 0.08 0.12 0.12 0.13 0.14 0.16 0.20 0.21 0.19 0.19 0.21 0.26 0.29 0.34 0.33 0.25 0.21 0.24 0.27 0.31 0.37 0.41 0.42 0.44 0.43 0.44 0.50 0.52 0.56 0.55 0.50 0.52
0.11 0.10 0.11 0.10 0.09 0.08 0.08 0.07 0.06 0.06 0.06 0.06 0.07 0.11 0.14 0.14 0.14 0.15 0.18 0.22 0.24 0.23 0.25 0.28 0.31 0.36 0.34 0.27 0.22 0.23 0.28 0.31 0.35 0.40 0.39 0.38 0.37 0.38 0.43 0.52 0.61 0.59 0.54 0.51
0.08 0.09 0.09 0.08 0.07 0.07 0.06 0.06 0.05 0.05 0.06 0.07 0.08 0.09 0.13 0.14 0.13 0.14 0.18 0.22 0.25 0.24 0.25 0.27 0.30 0.34 0.33 0.27 0.25 0.24 0.27 0.31 0.33 0.36 0.38 0.37 0.37 0.37 0.38 0.43 0.52 0.57 0.59 0.57
0.05 0.06 0.07 0.05 0.04 0.04 0.04 0.05 0.05 0.05 0.06 0.06 0.07 0.08 0.10 0.13 0.13 0.15 0.19 0.24 0.26 0.25 0.24 0.27 0.31 0.37 0.35 0.28 0.25 0.26 0.30 0.29 0.28 0.32 0.37 0.40 0.40 0.42 0.42 0.43 0.46 0.50 0.55 0.65
0.06 0.06 0.06 0.05 0.05 0.05 0.05 0.05 0.05 0.06 0.06 0.06 0.07 0.07 0.08 0.11 0.14 0.17 0.20 0.23 0.25 0.27 0.28 0.30 0.34 0.38 0.36 0.29 0.28 0.27 0.32 0.36 0.32 0.32 0.38 0.41 0.43 0.47 0.50 0.52 0.54 0.54 0.55 0.60
0.10 0.09 0.09 0.08 0.07 0.05 0.05 0.04 0.04 0.05 0.05 0.06 0.07 0.07 0.07 0.09 0.12 0.16 0.19 0.22 0.23 0.25 0.26 0.28 0.32 0.36 0.36 0.34 0.31 0.31 0.33 0.37 0.40 0.36 0.36 0.39 0.44 0.49 0.52 0.57 0.59 0.57 0.51 0.56
0.12 0.11 0.09 0.08 0.07 0.06 0.05 0.04 0.03 0.04 0.05 0.06 0.06 0.07 0.07 0.09 0.12 0.17 0.20 0.22 0.23 0.26 0.29 0.29 0.32 0.36 0.37 0.39 0.36 0.34 0.35 0.37 0.37 0.37 0.38 0.42 0.47 0.50 0.55 0.59 0.59 0.59 0.58 0.63
0.08 0.09 0.07 0.07 0.07 0.05 0.05 0.05 0.04 0.05 0.05 0.06 0.07 0.08 0.08 0.10 0.13 0.17 0.20 0.22 0.23 0.26 0.30 0.32 0.38 0.37 0.38 0.42 0.42 0.37 0.37 0.39 0.41 0.39 0.40 0.51 0.54 0.51 0.55 0.60 0.62 0.63 0.65 0.67
0.08 0.08 0.07 0.06 0.06 0.06 0.07 0.07 0.06 0.05 0.05 0.05 0.08 0.08 0.08 0.10 0.13 0.16 0.19 0.20 0.23 0.26 0.29 0.33 0.36 0.35 0.37 0.44 0.47 0.41 0.43 0.46 0.46 0.43 0.44 0.50 0.55 0.57 0.58 0.61 0.65 0.67 0.67 0.67
0.07 0.07 0.06 0.06 0.06 0.07 0.08 0.08 0.07 0.06 0.06 0.07 0.09 0.10 0.11 0.13 0.15 0.17 0.18 0.19 0.21 0.25 0.28 0.33 0.33 0.33 0.34 0.44 0.51 0.47 0.47 0.47 0.48 0.47 0.48 0.51 0.56 0.60 0.62 0.63 0.65 0.67 0.68 0.68
0.07 0.07 0.07 0.06 0.07 0.08 0.09 0.09 0.09 0.09 0.08 0.08 0.10 0.12 0.13 0.14 0.15 0.17 0.18 0.20 0.22 0.28 0.29 0.29 0.29 0.33 0.40 0.47 0.48 0.47 0.46 0.47 0.48 0.50 0.52 0.53 0.59 0.64 0.63 0.63 0.67 0.68 0.67 0.68
0.08 0.08 0.10 0.10 0.11 0.12 0.11 0.10 0.11 0.12 0.11 0.11 0.12 0.14 0.16 0.18 0.18 0.20 0.21 0.22 0.26 0.32 0.31 0.30 0.33 0.40 0.48 0.46 0.45 0.47 0.47 0.48 0.49 0.52 0.55 0.57 0.60 0.64 0.65 0.65 0.67 0.68 0.71 0.72
0.12 0.11 0.12 0.13 0.14 0.15 0.13 0.12 0.13 0.14 0.15 0.16 0.16 0.17 0.19 0.20 0.20 0.20 0.23 0.29 0.33 0.36 0.34 0.37 0.41 0.45 0.50 0.46 0.45 0.48 0.52 0.54 0.55 0.58 0.62 0.63 0.64 0.66 0.66 0.65 0.67 0.66 0.69 0.71
0.14 0.13 0.13 0.14 0.16 0.18 0.18 0.16 0.15 0.16 0.17 0.19 0.18 0.18 0.21 0.23 0.25 0.25 0.26 0.31 0.35 0.38 0.38 0.42 0.46 0.48 0.48 0.49 0.51 0.54 0.59 0.61 0.66 0.73 0.75 0.70 0.68 0.68 0.65 0.62 0.65 0.69 0.69 0.68
0.18 0.18 0.18 0.18 0.20 0.21 0.20 0.19 0.18 0.18 0.18 0.19 0.21 0.22 0.25 0.27 0.29 0.30 0.32 0.34 0.37 0.40 0.41 0.42 0.45 0.49 0.52 0.57 0.60 0.62 0.68 0.71 0.74 0.74 0.69 0.67 0.66 0.65 0.63 0.61 0.63 0.67 0.68 0.67
0.23 0.22 0.22 0.23 0.24 0.23 0.23 0.24 0.25 0.25 0.24 0.26 0.28 0.28 0.29 0.32 0.35 0.37 0.38 0.39 0.40 0.41 0.43 0.46 0.50 0.55 0.61 0.64 0.68 0.71 0.74 0.75 0.75 0.74 0.70 0.69 0.68 0.65 0.63 0.63 0.65 0.66 0.66 0.62